UZB427 LSZS-LMML

Flight info

Callsign UZB427
Flight time N/A
Altitude 37000
Route PELAD Z50 RESIA DCT NEVNI DCT LURUT DCT AMTEL DCT OST DCT UNIXO DCT DORAS DCT LEBNU DCT DILIN DCT GZO
Aircraft A320/M-SDE3FGHIRWY/LB1

Departure

Time N/A
Airport Engadin Airport (LSZS)

Arrival

Time 2026-05-06 16:58
Airport Malta International Airport (LMML)
Time Latitude Longitude Altitude Speed Heading
2026-05-06 15:50 42.67644 11.70056 36946 ft 425 kts 170°
2026-05-06 15:50 42.64841 11.71287 36951 ft 426 kts 170°
2026-05-06 15:51 42.59203 11.73763 36948 ft 426 kts 170°
2026-05-06 15:51 42.53567 11.76229 36971 ft 426 kts 170°
2026-05-06 15:52 42.47925 11.78688 36983 ft 426 kts 170°
2026-05-06 15:52 42.42320 11.81132 36988 ft 426 kts 170°
2026-05-06 15:53 42.36678 11.83588 36984 ft 426 kts 170°
2026-05-06 15:53 42.31037 11.86041 36992 ft 426 kts 170°
2026-05-06 15:54 42.25399 11.88492 36990 ft 426 kts 170°
2026-05-06 15:54 42.20707 11.90521 36991 ft 426 kts 170°
2026-05-06 15:55 42.14152 11.93349 36981 ft 426 kts 170°
2026-05-06 15:55 42.08510 11.95787 36981 ft 426 kts 170°
2026-05-06 15:56 42.03823 11.97810 36982 ft 426 kts 170°
2026-05-06 15:56 41.97229 12.00647 36967 ft 426 kts 170°
2026-05-06 15:57 41.91624 12.03045 36977 ft 425 kts 170°
2026-05-06 15:57 41.85987 12.05456 36959 ft 425 kts 170°
2026-05-06 15:58 41.80343 12.07866 36960 ft 426 kts 170°
2026-05-06 15:58 41.75641 12.09870 36946 ft 427 kts 170°
2026-05-06 15:59 41.69060 12.12675 36965 ft 427 kts 170°
2026-05-06 15:59 41.63395 12.15092 36974 ft 427 kts 170°
2026-05-06 16:00 41.58690 12.17088 36980 ft 427 kts 170°
2026-05-06 16:00 41.53026 12.19481 36991 ft 427 kts 171°
2026-05-06 16:01 41.46456 12.22257 36988 ft 426 kts 171°
2026-05-06 16:01 41.41719 12.24256 36990 ft 426 kts 171°
2026-05-06 16:02 41.36103 12.26621 36991 ft 426 kts 171°
2026-05-06 16:02 41.30454 12.28992 36976 ft 426 kts 171°
2026-05-06 16:03 41.24808 12.31363 36985 ft 426 kts 171°
2026-05-06 16:03 41.19159 12.33733 36999 ft 425 kts 171°
2026-05-06 16:04 41.13552 12.36081 36997 ft 425 kts 171°
2026-05-06 16:04 41.07906 12.38439 36985 ft 425 kts 171°
2026-05-06 16:05 41.02262 12.40788 36970 ft 425 kts 171°
2026-05-06 16:05 40.96613 12.43128 36973 ft 426 kts 171°
2026-05-06 16:06 40.90951 12.45473 36978 ft 427 kts 171°
2026-05-06 16:06 40.85325 12.47815 36968 ft 427 kts 171°
2026-05-06 16:07 40.79661 12.50170 36986 ft 427 kts 171°
2026-05-06 16:07 40.73991 12.52504 36995 ft 427 kts 171°
2026-05-06 16:08 40.68319 12.54841 37000 ft 427 kts 171°
2026-05-06 16:08 40.62687 12.57157 36983 ft 427 kts 171°
2026-05-06 16:09 40.57022 12.59491 36990 ft 427 kts 171°
2026-05-06 16:09 40.51353 12.61825 36996 ft 427 kts 171°
2026-05-06 16:10 40.45684 12.64141 37001 ft 427 kts 171°
2026-05-06 16:10 40.40052 12.66433 36989 ft 427 kts 171°
2026-05-06 16:11 40.34386 12.68740 36989 ft 426 kts 171°
2026-05-06 16:11 40.28718 12.71046 37005 ft 427 kts 171°
2026-05-06 16:12 40.23050 12.73350 37001 ft 427 kts 171°
2026-05-06 16:12 40.17382 12.75653 36991 ft 426 kts 171°
2026-05-06 16:13 40.11753 12.77934 36980 ft 427 kts 171°
2026-05-06 16:13 40.06076 12.80230 36989 ft 427 kts 171°
2026-05-06 16:14 40.00405 12.82523 36991 ft 428 kts 171°
2026-05-06 16:14 39.94708 12.84812 36994 ft 428 kts 171°
2026-05-06 16:15 39.89059 12.87077 36995 ft 428 kts 171°
2026-05-06 16:15 39.83369 12.89362 36995 ft 428 kts 171°
2026-05-06 16:16 39.77678 12.91650 36996 ft 428 kts 171°
2026-05-06 16:16 39.71985 12.93932 36970 ft 428 kts 171°
2026-05-06 16:17 39.66317 12.96191 36975 ft 429 kts 171°
2026-05-06 16:17 39.60606 12.98469 36978 ft 430 kts 171°
2026-05-06 16:18 39.54891 13.00749 36982 ft 430 kts 171°
2026-05-06 16:18 39.49172 13.03022 36967 ft 430 kts 170°
2026-05-06 16:19 39.43485 13.05275 36971 ft 431 kts 170°
2026-05-06 16:19 39.37757 13.07565 36974 ft 431 kts 170°
2026-05-06 16:20 39.32024 13.09845 36978 ft 431 kts 170°
2026-05-06 16:20 39.26287 13.12101 36973 ft 431 kts 171°
2026-05-06 16:21 39.20595 13.14335 36969 ft 431 kts 171°
2026-05-06 16:21 39.14863 13.16593 36968 ft 431 kts 171°
2026-05-06 16:22 39.09119 13.18859 36966 ft 432 kts 171°
2026-05-06 16:22 39.03372 13.21108 36960 ft 432 kts 171°
2026-05-06 16:23 38.97658 13.23339 36962 ft 432 kts 171°
2026-05-06 16:23 38.91903 13.25592 36967 ft 432 kts 171°
2026-05-06 16:24 38.86146 13.27845 36972 ft 432 kts 171°
2026-05-06 16:24 38.80389 13.30078 36950 ft 432 kts 170°
2026-05-06 16:25 38.74639 13.32303 36977 ft 431 kts 170°
2026-05-06 16:25 38.68938 13.34519 36982 ft 431 kts 170°
2026-05-06 16:26 38.63205 13.36734 36983 ft 430 kts 170°
2026-05-06 16:26 38.57479 13.38950 36961 ft 430 kts 170°
2026-05-06 16:27 38.51752 13.41161 36955 ft 430 kts 170°
2026-05-06 16:27 38.46055 13.43359 36957 ft 431 kts 170°
2026-05-06 16:28 38.40318 13.45575 36957 ft 431 kts 170°
2026-05-06 16:28 38.34576 13.47773 36961 ft 431 kts 170°
2026-05-06 16:29 38.28826 13.49970 36943 ft 432 kts 170°
2026-05-06 16:29 38.23096 13.52173 36941 ft 434 kts 170°
2026-05-06 16:30 38.18285 13.54011 36940 ft 435 kts 170°
2026-05-06 16:30 38.11505 13.56595 36947 ft 436 kts 170°
2026-05-06 16:31 38.05691 13.58805 36934 ft 437 kts 170°
2026-05-06 16:31 37.99901 13.61004 36946 ft 438 kts 170°
2026-05-06 16:32 37.94066 13.63220 36951 ft 438 kts 170°
2026-05-06 16:32 37.88218 13.65433 36959 ft 439 kts 170°
2026-05-06 16:33 37.82360 13.67646 36950 ft 440 kts 169°
2026-05-06 16:34 37.73549 13.70983 36565 ft 445 kts 169°
2026-05-06 16:34 37.70585 13.72104 36304 ft 445 kts 169°
2026-05-06 16:34 37.67616 13.73223 36050 ft 445 kts 169°
2026-05-06 16:34 37.64650 13.74336 35795 ft 445 kts 169°
2026-05-06 16:35 37.61685 13.75446 35544 ft 445 kts 168°
2026-05-06 16:35 37.58719 13.76559 35295 ft 445 kts 168°
2026-05-06 16:35 37.55754 13.77671 35046 ft 444 kts 168°
2026-05-06 16:35 37.52792 13.78782 34808 ft 444 kts 168°
2026-05-06 16:36 37.49869 13.79878 34568 ft 444 kts 168°
2026-05-06 16:36 37.46906 13.80986 34329 ft 444 kts 168°
2026-05-06 16:36 37.43947 13.82094 34094 ft 444 kts 168°
2026-05-06 16:36 37.40992 13.83201 33567 ft 442 kts 168°
2026-05-06 16:37 37.38041 13.84306 32645 ft 443 kts 168°
2026-05-06 16:37 37.35078 13.85415 31655 ft 446 kts 167°
2026-05-06 16:37 37.32090 13.86531 30611 ft 451 kts 167°
2026-05-06 16:37 37.29081 13.87654 29798 ft 450 kts 167°
2026-05-06 16:38 37.26123 13.88755 29025 ft 446 kts 167°
2026-05-06 16:38 37.23162 13.89852 28323 ft 442 kts 167°
2026-05-06 16:38 37.20229 13.90936 27643 ft 437 kts 167°
2026-05-06 16:38 37.17324 13.92013 26981 ft 433 kts 167°
2026-05-06 16:39 37.14451 13.93081 26342 ft 429 kts 167°
2026-05-06 16:39 37.11600 13.94142 25720 ft 425 kts 167°
2026-05-06 16:39 37.08779 13.95190 25121 ft 421 kts 167°
2026-05-06 16:39 37.05989 13.96227 24521 ft 417 kts 167°
2026-05-06 16:40 37.03248 13.97244 23946 ft 414 kts 167°
2026-05-06 16:40 37.00490 13.98207 23349 ft 409 kts 172°
2026-05-06 16:40 36.97714 13.98863 22720 ft 404 kts 174°
2026-05-06 16:40 36.94961 13.99498 22136 ft 400 kts 174°
2026-05-06 16:41 36.92238 14.00125 21593 ft 396 kts 174°
2026-05-06 16:41 36.89538 14.00749 21068 ft 393 kts 174°
2026-05-06 16:41 36.86868 14.01371 20553 ft 388 kts 174°
2026-05-06 16:41 36.84226 14.01989 20062 ft 384 kts 174°
2026-05-06 16:42 36.81611 14.02601 19578 ft 381 kts 174°
2026-05-06 16:42 36.79053 14.03199 19096 ft 377 kts 174°
2026-05-06 16:42 36.76483 14.03798 18610 ft 374 kts 175°
2026-05-06 16:42 36.73937 14.04391 18121 ft 371 kts 175°
2026-05-06 16:43 36.71411 14.04976 17584 ft 368 kts 174°
2026-05-06 16:43 36.68906 14.05553 17062 ft 364 kts 174°
2026-05-06 16:43 36.66427 14.06126 16547 ft 361 kts 174°
2026-05-06 16:43 36.63971 14.06694 16065 ft 358 kts 174°
2026-05-06 16:44 36.61532 14.07259 15544 ft 355 kts 173°
2026-05-06 16:44 36.59111 14.07820 15065 ft 352 kts 173°
2026-05-06 16:44 36.56742 14.08369 14584 ft 349 kts 173°
2026-05-06 16:44 36.54365 14.08921 14130 ft 346 kts 173°
2026-05-06 16:45 36.52005 14.09468 13667 ft 343 kts 173°
2026-05-06 16:45 36.49670 14.10007 13161 ft 340 kts 173°
2026-05-06 16:45 36.47355 14.10535 12626 ft 337 kts 173°
2026-05-06 16:45 36.45054 14.11058 12103 ft 335 kts 173°
2026-05-06 16:46 36.42772 14.11578 11572 ft 332 kts 172°
2026-05-06 16:46 36.40533 14.12093 11029 ft 331 kts 172°
2026-05-06 16:46 36.38281 14.12613 10564 ft 326 kts 171°
2026-05-06 16:46 36.36065 14.13125 10115 ft 322 kts 171°
2026-05-06 16:47 36.33882 14.13628 9880 ft 314 kts 171°
2026-05-06 16:47 36.31781 14.14114 9749 ft 300 kts 171°
2026-05-06 16:47 36.29773 14.14576 9616 ft 287 kts 172°
2026-05-06 16:47 36.27856 14.15015 9490 ft 274 kts 172°
2026-05-06 16:48 36.26010 14.15439 9250 ft 267 kts 172°
2026-05-06 16:48 36.24218 14.15850 8887 ft 264 kts 171°
2026-05-06 16:48 36.22421 14.16259 8521 ft 262 kts 171°
2026-05-06 16:48 36.20627 14.16664 8034 ft 264 kts 171°
2026-05-06 16:49 36.18821 14.17073 7658 ft 262 kts 171°
2026-05-06 16:49 36.17038 14.17481 7215 ft 262 kts 170°
2026-05-06 16:49 36.15241 14.17892 6840 ft 260 kts 170°
2026-05-06 16:49 36.13466 14.18299 6484 ft 257 kts 170°
2026-05-06 16:50 36.11728 14.18696 6150 ft 253 kts 170°
2026-05-06 16:50 36.09995 14.19092 5713 ft 252 kts 169°
2026-05-06 16:50 36.08305 14.19479 5313 ft 249 kts 169°
2026-05-06 16:50 36.06587 14.19874 4810 ft 251 kts 167°
2026-05-06 16:51 36.05001 14.20578 4693 ft 236 kts 150°
2026-05-06 16:51 36.03758 14.21802 4559 ft 224 kts 133°
2026-05-06 16:51 36.02912 14.23359 4433 ft 214 kts 116°
2026-05-06 16:51 36.02397 14.25034 4265 ft 203 kts 114°
2026-05-06 16:52 36.01920 14.26644 3995 ft 198 kts 114°
2026-05-06 16:52 36.01435 14.28240 3668 ft 198 kts 117°
2026-05-06 16:52 36.00611 14.29520 3352 ft 195 kts 140°
2026-05-06 16:52 35.99605 14.30599 3204 ft 187 kts 137°
2026-05-06 16:53 35.98685 14.31687 3082 ft 178 kts 135°
2026-05-06 16:53 35.97829 14.32737 3022 ft 166 kts 135°
2026-05-06 16:53 35.97069 14.33680 2973 ft 146 kts 135°
2026-05-06 16:53 35.96396 14.34516 2974 ft 132 kts 135°
2026-05-06 16:54 35.95748 14.35322 2917 ft 130 kts 135°
2026-05-06 16:54 35.95115 14.36109 2827 ft 129 kts 135°
2026-05-06 16:54 35.94492 14.36884 2674 ft 129 kts 136°
2026-05-06 16:54 35.93864 14.37666 2510 ft 127 kts 136°
2026-05-06 16:55 35.93239 14.38444 2369 ft 128 kts 136°
2026-05-06 16:55 35.92618 14.39216 2202 ft 126 kts 135°
2026-05-06 16:55 35.92002 14.39982 2041 ft 125 kts 135°
2026-05-06 16:55 35.91392 14.40740 1872 ft 124 kts 134°
2026-05-06 16:56 35.90779 14.41502 1713 ft 125 kts 134°
2026-05-06 16:56 35.90168 14.42260 1537 ft 124 kts 134°
2026-05-06 16:56 35.89570 14.43004 1378 ft 123 kts 136°
2026-05-06 16:56 35.88965 14.43755 1216 ft 123 kts 135°
2026-05-06 16:57 35.88362 14.44504 1052 ft 123 kts 135°
2026-05-06 16:57 35.87751 14.45259 855 ft 124 kts 133°
2026-05-06 16:57 35.87146 14.46007 695 ft 121 kts 129°
2026-05-06 16:57 35.86550 14.46749 549 ft 124 kts 131°
2026-05-06 16:58 35.85953 14.47499 349 ft 122 kts 130°
2026-05-06 16:58 35.85381 14.48216 274 ft 106 kts 130°
2026-05-06 16:58 35.84976 14.48715 262 ft 59 kts 134°
2026-05-06 16:58 35.84720 14.49026 259 ft 47 kts 136°
2026-05-06 16:59 35.84521 14.49283 259 ft 35 kts 126°
2026-05-06 16:59 35.84442 14.49508 259 ft 21 kts 91°
2026-05-06 16:59 35.84523 14.49563 259 ft 13 kts 332°
2026-05-06 16:59 35.84597 14.49548 259 ft 10 kts 39°
2026-05-06 17:00 35.84665 14.49576 259 ft 11 kts 358°
2026-05-06 17:00 35.84688 14.49575 259 ft 0 kts 358°
2026-05-06 17:00 35.84729 14.49574 259 ft 9 kts
2026-05-06 17:01 35.84764 14.49573 259 ft 0 kts 359°